Regional Weather Roundup
Issued by NWS Wilmington, NC

Home | Current Version | Previous Version | Text Only | Print | Product List | Glossary On
Versions: 1 2 3 4 5 6 7 8 9 10 11 12 13 14 15 16 17 18 19 20 21 22 23 24 25 26 27 28 29 30 31 32 33 34 35 36 37 38 39 40 41 42 43 44 45 46 47 48 49 50
000
ASUS42 KILM 022213
RWRILM
RWRILM
REGIONAL HOURLY WEATHER ROUNDUP
NATIONAL WEATHER SERVICE WILMINGTON NC
500 PM EST FRI DEC 02 2016

NOTE: "FAIR" INDICATES FEW OR NO CLOUDS BELOW 12,000 FEET WITH NO
SIGNIFICANT WEATHER AND/OR OBSTRUCTIONS TO VISIBILITY.

...............WFO WILMINGTON COUNTY WARNING AREA...............

......COASTAL NC AND SC COUNTIES......

CITY           SKY/WX    TMP DP  RH WIND       PRES   REMARKS
WILMINGTON     CLEAR     54  33  45 NW6       30.12R
N MYRTLE BEACH CLEAR     56  34  43 NW3       30.13R
MYRTLE BEACH   CLEAR     57  32  38 NW7       30.15R

......INLAND NC AND SC COUNTIES.......

CITY           SKY/WX    TMP DP  RH WIND       PRES   REMARKS
LUMBERTON      CLEAR     54  33  45 W6        30.12S
ELIZABETHTOWN  CLEAR     56  34  43 W3        30.12R
WHITEVILLE     CLEAR     56  33  42 W3        30.12S
FLORENCE       CLEAR     56  34  43 W5        30.14S
DARLINGTON     CLEAR     55  37  50 W6        30.14S
KINGSTREE      FAIR      54  34  47 W5        30.14F
HARTSVILLE     FAIR      52  34  50 CALM      30.13S
BENNETTSVILLE  FAIR      57  36  44 W3        30.13S
CONWAY         FAIR      52  37  58 CALM      30.14S HAZE
GEORGETOWN     NOT AVBL
MARION         FAIR      54  34  47 W3        30.14S

....................REST OF NORTH CAROLINA......................

.........EASTERN NC.........

CITY           SKY/WX    TMP DP  RH WIND       PRES   REMARKS
CAPE HATTERAS  CLEAR     51  39  63 W5        30.07S
JACKSONVILLE   CLEAR     53  34  48 W3        30.11R
MOREHEAD CITY  CLEAR     54  36  50 W10       30.09R
KENANSVILLE    CLEAR     54  32  43 W3        30.11R
NEW BERN       CLEAR     52  33  48 W5        30.10R
ELIZABETH CITY CLEAR     49  33  54 W6        30.06R

.........CENTRAL NC.........

CITY           SKY/WX    TMP DP  RH WIND       PRES   REMARKS
RALEIGH DURHAM PTCLDY    53  29  39 W5        30.10R
ROCKY MOUNT    CLEAR     52  31  44 W6        30.09S
ROANOKE RAPIDS NOT AVBL
FAYETTEVILLE   CLEAR     56  34  43 W8        30.12R
HOFFMAN        CLEAR     54  35  48 W3        30.12R

.........WESTERN NC.........

CITY           SKY/WX    TMP DP  RH WIND       PRES   REMARKS
CHARLOTTE      PTCLDY    56  26  31 W5        30.13S
GREENSBORO     PTCLDY    54  28  36 NW8       30.08S
HICKORY        NOT AVBL
BOONE          NOT AVBL
ASHEVILLE      NOT AVBL

.....................REST OF SOUTH CAROLINA.....................

.........EASTERN SC.........

CITY           SKY/WX    TMP DP  RH WIND       PRES   REMARKS
CHARLESTON     PTCLDY    57  34  41 N7        30.15R
BEAUFORT MCAS  CLEAR     58  37  45 W5        30.16R
HILTON HEAD    CLEAR     59  37  44 NW7       30.17R

.........CENTRAL SC.........

CITY           SKY/WX    TMP DP  RH WIND       PRES   REMARKS
COLUMBIA       PTCLDY    57  32  38 W8        30.15S
ORANGEBURG     CLEAR     58  31  35 NW5       30.15S
SUMTER SHAW    CLEAR     56  31  38 W6        30.13S

.........WESTERN SC.........

CITY           SKY/WX    TMP DP  RH WIND       PRES   REMARKS
GREENVILLE     NOT AVBL
ROCK HILL      CLEAR     55  28  35 SW5       30.14R
ANDERSON       CLEAR     55  30  38 S7        30.15S
CLEMSON        NOT AVBL
GREENWOOD      CLEAR     56  28  34 CALM      30.17S


...................COASTAL AND OFFSHORE REPORTS..................

................LOCAL PIERS AND NC RESERVE................


STATION/POSITION TIME  SKY/WX   TEMP    WIND        PRES    VSBY
                                AIR SEA DIR/SP/G
                 (UTC)          (F)     (DEG/KT/KT) (MB)    (MI)
JOHNY MRCER PIER 2118            58 65  320/  6/  9 1018.2
NC RESRV MASNBRO 2045            59     290/  2     1018.0
OCEAN CREST PIER NOT AVBL
SPRINGMAID  PIER NOT AVBL


................COASTAL AND OFFSHORE BUOYS................


STATION/POSITION TIME  SKY/WX   TEMP    WIND        PRES    VSBY
                                AIR SEA DIR/SP/G
                 (UTC)          (F)     (DEG/KT/KT) (MB)    (MI)
DIMNDSHOAL 41025 2150            55 76  310/ 12/ 17 1018.0F
WVE H/P(F/S)=  3/ 7 SWL H/P/D(F/S/D)=  3/140/ 7

CAPE LOOKOUT     2100            57     290/ 10/ 13 1018.2S
ONSLOW BAY 41036 NOT AVBL
ONSLOW BAY 41064 2108            58 72  310/ 10/ 14 1018.9F
ONSLOW BAY 41159 NOT AVBL
5SE WRITBC 41038 2108            56 64  320/ 12/ 17 1018.0F
MASNBO INL 41110 2059               64                N/A
WVE H/P(F/S)=  2/ 8

WILM HARBR 41108 2126               63                N/A
WVE H/P(F/S)=  2/ 9

27SE WRITB 41037 2108            58 66  310/ 12/ 17 1018.8F
FRYING PAN 41013 2150            58 74  310/ 12/ 16 1019.5S
WVE H/P(F/S)=  3/ 5 SWL H/P/D(F/S/D)=  2/140/ 9

SUNST NRSH 41024 2108            59 61  330/ 10/ 14 1019.5S
CAPRS NRSH 41029 2108            59 63  310/ 12/ 16 1020.1S
EDISTO     41004 2150            59 74  320/ 12/ 16 1020.0R
WVE H/P(F/S)=  3/ 5 SWL H/P/D(F/S/D)=  2/130/ 8



..........OFFSHORE BUOYS BEYOND 100 NM OFFSHORE...........
.....IN A TRIANGLE---HAT TO BERMUDA TO BAHAMAS TO HAT.....


STATION/POSITION TIME  SKY/WX   TEMP    WIND        PRES    VSBY
                                AIR SEA DIR/SP/G
                 (UTC)          (F)     (DEG/KT/KT) (MB)    (MI)
150E HAT   41001 NOT AVBL
W BERMUDA  41048 2150            72 73  290/ 14/ 17 1014.6R
WVE H/P(F/S)=  5/ 8 SWL H/P/D(F/S/D)=  3/280/ 8

ATLANTIC S 41049 2150            75 77  210/  8/ 10 1017.8R
WVE H/P(F/S)=  3/ 8 SWL H/P/D(F/S/D)=  3/ 80/ 8

E BAHAMAS  41046 2200            78 78   70/  6/  8 1016.8
NE BAHAMAS 41047 2150            77 78  270/  8/ 10 1016.8F
WVE H/P(F/S)=  4/ 8 SWL H/P/D(F/S/D)=  3/130/ 8

120E CANVRL41010 NOT AVBL

END



USA.gov is the U.S. government's official web portal to all federal, state and local government web resources and services.